Wind_Speed
30 32 33 34 40 41 40 37 34 36 36 35 35 35 31 28 29 28 27 28 26 28 28 27 26 26 26 26 26 27 28 28
31 36 38 34 37 41 44 41 38 38 37 37 36 35 33 31 31 30 30 28 28 32 32 30 26 28 26 27 29 29 30 29
38 39 39 37 38 35 43 43 43 40 40 40 39 37 35 35 34 32 31 29 28 27 29 27 27 28 27 33 31 30 31 32
46 42 42 35 37 39 38 40 39 39 42 45 44 41 38 35 32 32 31 30 31 32 32 31 30 34 33 33 34 33 34 33
51 44 41 41 39 40 35 42 43 39 43 47 47 42 39 36 38 38 35 33 34 34 33 32 32 33 35 36 34 35 35 34
50 42 39 42 39 41 39 41 45 46 43 46 47 45 44 42 41 40 37 37 38 37 37 37 36 36 36 37 37 37 37 38
39 40 38 40 43 42 45 45 44 48 47 47 51 48 48 46 41 39 40 42 42 42 42 39 38 34 36 37 37 39 39 40
45 44 43 43 46 45 40 43 47 47 51 47 52 50 51 48 44 39 44 45 45 48 45 45 39 38 39 39 40 40 42 41
42 45 45 46 46 48 35 41 48 47 49 47 51 52 53 50 41 42 47 46 49 49 49 47 43 37 40 41 42 42 42 43
47 47 47 46 45 45 37 38 42 49 47 47 52 53 53 49 41 44 45 44 44 47 46 36 33 36 39 41 43 43 44 48
40 47 47 45 41 44 41 43 44 46 47 48 51 51 51 47 44 43 44 40 41 43 43 39 39 39 41 40 42 45 46 46
38 45 47 43 40 38 35 37 46 46 44 46 48 48 48 47 43 45 42 41 43 46 47 46 44 45 43 42 43 46 47 49
38 40 41 41 38 36 38 33 45 37 42 46 48 48 48 48 45 45 42 44 46 46 47 47 46 47 46 45 44 45 45 45
30 36 39 45 40 39 40 35 41 41 42 47 50 50 49 49 47 46 43 45 46 47 48 46 46 45 48 47 46 47 44 44
32 34 40 36 41 44 37 38 36 42 44 46 47 47 48 49 48 48 46 46 49 50 49 46 46 45 47 49 47 45 44 45
43 41 36 43 39 41 37 38 37 43 44 43 43 47 48 48 48 48 49 51 51 51 48 47 47 46 47 47 45 45 46 48
40 45 40 30 30 38 40 39 43 39 39 41 42 43 45 49 50 51 53 53 54 53 50 50 49 47 49 45 45 47 49 49
53 48 44 43 35 34 39 40 42 45 47 44 45 46 50 53 55 56 56 54 53 53 53 52 50 49 45 45 50 49 48 49
60 57 57 53 51 51 40 39 42 42 46 50 51 51 50 50 51 51 52 51 55 55 53 50 47 46 46 51 50 49 49 43
Wind_Direction
254 249 248 242 243 244 242 243 244 248 250 253 256 256 256 255 256 257 260 261 264 271 269 266 266 267 268 272 275 276 279 281
257 253 249 248 246 245 249 246 248 248 253 254 255 257 253 252 252 252 256 259 263 267 263 266 266 267 268 272 274 276 278 281
263 258 256 254 253 248 250 250 248 250 251 255 257 253 248 248 251 255 259 261 262 266 257 267 266 266 269 272 274 276 280 281
265 265 267 261 260 254 250 251 250 247 246 248 253 252 250 251 255 258 258 258 259 261 265 265 263 261 267 269 274 278 281 283
267 270 266 267 265 268 251 249 252 247 244 245 249 253 254 253 252 252 256 258 259 262 264 264 264 262 266 271 275 277 279 281
266 265 264 264 256 258 259 248 248 251 242 243 246 249 251 251 253 256 260 262 263 264 263 262 263 265 266 270 275 277 278 281
256 254 257 256 261 249 248 249 247 247 245 241 246 247 251 254 252 255 260 261 263 265 262 262 265 266 269 271 274 277 279 279
255 255 258 259 259 262 252 250 244 248 245 239 243 244 247 252 254 256 259 261 263 263 265 260 257 260 264 269 272 276 279 281
250 254 255 256 257 258 246 242 238 246 243 239 239 241 243 249 253 255 253 258 261 264 263 263 263 260 266 270 275 281 280 284
257 252 250 247 255 248 240 242 243 244 240 240 238 239 243 249 249 247 251 256 263 265 270 264 268 273 275 278 280 281 280 280
251 245 244 243 247 240 242 239 239 242 240 238 237 238 242 245 244 247 253 258 263 266 274 273 274 274 280 279 281 283 284 285
245 241 243 241 236 239 244 244 236 237 240 238 236 236 239 241 241 247 252 258 264 268 271 274 273 276 277 280 283 285 284 289
242 246 248 241 238 247 246 247 229 231 234 235 234 235 238 239 242 247 252 256 261 265 268 268 270 273 272 279 280 282 285 284
244 240 233 234 240 248 243 239 228 223 227 233 236 239 241 243 243 246 249 256 260 263 267 270 271 271 271 274 279 283 283 288
232 236 231 234 238 241 237 242 232 231 230 232 235 237 238 243 243 246 251 255 259 263 266 268 271 272 273 273 279 281 284 288
235 241 237 234 231 230 225 232 237 234 239 243 241 236 238 239 243 248 253 256 261 263 266 271 273 274 275 272 276 280 284 290
235 239 234 217 231 227 230 230 232 237 235 239 243 245 246 244 247 250 252 258 262 265 271 274 274 275 274 276 278 279 283 290
241 243 240 232 239 238 238 235 233 234 234 237 241 243 242 245 247 249 253 258 262 267 271 271 271 273 274 278 279 280 289 291
244 243 244 246 244 252 249 243 240 240 238 236 239 240 242 244 247 251 256 261 263 265 268 269 272 273 275 273 279 285 290 286
Height
5792 5793 5793 5794 5795 5797 5799 5801 5802 5805 5808 5810 5812 5813 5816 5818 5820 5821 5822 5823 5825 5826 5827 5828 5828 5829 5831 5831 5830 5830 5829 5829
5784 5784 5786 5789 5789 5792 5793 5795 5797 5798 5801 5803 5806 5808 5809 5812 5814 5815 5817 5818 5820 5821 5821 5822 5824 5825 5826 5826 5825 5825 5825 5824
5775 5776 5778 5781 5783 5786 5786 5789 5790 5792 5794 5796 5798 5800 5803 5804 5807 5810 5811 5813 5815 5815 5815 5818 5819 5820 5820 5821 5820 5820 5819 5819
5763 5767 5768 5773 5775 5778 5781 5783 5784 5785 5786 5787 5789 5792 5795 5799 5803 5804 5806 5807 5809 5810 5811 5813 5813 5814 5816 5816 5815 5814 5813 5813
5752 5758 5759 5760 5767 5767 5773 5773 5774 5777 5777 5779 5781 5785 5788 5792 5793 5795 5798 5800 5802 5803 5804 5806 5807 5808 5808 5809 5809 5808 5808 5807
5743 5747 5751 5749 5755 5757 5759 5763 5764 5766 5769 5772 5774 5776 5780 5782 5785 5789 5791 5793 5794 5795 5797 5799 5801 5802 5803 5803 5803 5802 5801 5800
5735 5737 5740 5741 5740 5747 5748 5750 5753 5756 5761 5764 5766 5770 5770 5773 5778 5782 5783 5784 5785 5786 5788 5791 5793 5794 5796 5796 5796 5795 5794 5793
5722 5726 5729 5731 5732 5732 5740 5741 5743 5745 5749 5756 5757 5762 5762 5765 5769 5775 5775 5775 5777 5777 5781 5784 5784 5786 5787 5788 5787 5786 5784 5783
5713 5714 5716 5718 5722 5719 5729 5730 5733 5734 5738 5746 5749 5752 5753 5755 5762 5767 5766 5768 5769 5771 5772 5775 5777 5779 5779 5779 5778 5777 5776 5775
5699 5702 5703 5706 5708 5710 5719 5721 5724 5723 5728 5736 5739 5743 5745 5745 5754 5757 5758 5760 5763 5762 5762 5765 5768 5770 5771 5770 5770 5769 5768 5765
5686 5688 5691 5695 5697 5700 5706 5710 5712 5714 5719 5724 5730 5734 5736 5738 5744 5747 5749 5754 5755 5756 5756 5759 5760 5761 5761 5761 5761 5760 5759 5756
5676 5677 5679 5683 5688 5691 5696 5699 5702 5704 5711 5716 5720 5724 5727 5731 5735 5738 5742 5744 5747 5748 5749 5750 5751 5752 5753 5753 5751 5750 5749 5748
5666 5669 5672 5677 5680 5684 5685 5688 5691 5697 5703 5706 5710 5714 5718 5722 5726 5729 5733 5736 5738 5740 5742 5742 5743 5743 5743 5743 5742 5740 5739 5737
5658 5660 5662 5665 5670 5674 5677 5679 5684 5688 5693 5697 5701 5706 5709 5712 5716 5721 5724 5726 5729 5731 5732 5733 5734 5733 5733 5732 5732 5730 5728 5727
5647 5649 5652 5655 5659 5664 5670 5672 5676 5680 5685 5689 5692 5697 5700 5704 5707 5711 5714 5717 5719 5721 5723 5724 5724 5723 5722 5722 5721 5719 5718 5716
5639 5641 5643 5645 5648 5654 5660 5664 5667 5671 5675 5679 5683 5686 5691 5694 5699 5702 5704 5707 5710 5712 5713 5714 5713 5712 5712 5710 5710 5709 5707 5704
5628 5632 5636 5637 5642 5645 5650 5655 5659 5662 5666 5670 5673 5676 5679 5684 5687 5691 5694 5696 5699 5700 5701 5702 5701 5701 5700 5699 5699 5697 5695 5693
5616 5620 5626 5630 5631 5636 5640 5645 5649 5653 5657 5661 5664 5667 5671 5674 5678 5680 5683 5686 5688 5689 5690 5689 5690 5689 5688 5688 5688 5686 5684 5681
5604 5609 5614 5619 5625 5627 5632 5636 5640 5644 5647 5651 5654 5657 5661 5665 5668 5671 5674 5676 5676 5677 5678 5679 5679 5678 5678 5678 5677 5675 5673 5670